W4GHW Weather Reports


Display with metric or nautical units.
time (UTC)temp
F
wind
direction
speed
MPH
gust
MPH
rain 1hr
in
rain 24hr
in
rain mn
in
humidity
%
barometer
mb
20260508035005 72 296 2.0 7.0 0.00 1.08 1.08 89 1014.7
20260508034005 72 265 2.0 3.0 0.00 1.08 1.08 90 1014.9
20260508032005 72 267 1.0 3.0 0.00 1.08 1.08 89 1014.6
20260508031005 72 257 2.0 3.0 0.00 1.08 1.08 89 1014.4
20260508030005 72 271 2.0 3.0 0.00 1.08 1.08 89 1014.4
20260508025004 73 285 2.0 3.0 0.00 1.08 1.08 89 1014.2
20260508021005 73 274 2.0 3.0 0.00 1.08 1.08 88 1014.1
20260508015005 73 284 1.0 3.0 0.00 1.08 1.08 88 1013.9
20260508014004 73 256 2.0 3.0 0.00 1.08 1.08 87 1013.9
20260508013004 73 277 1.0 3.0 0.00 1.08 1.08 87 1013.6
20260508012004 73 271 2.0 3.0 0.00 1.08 1.08 87 1013.4
20260508011004 74 271 1.0 3.0 0.00 1.08 1.08 86 1013.4
20260508010004 74 244 1.0 3.0 0.00 1.08 1.08 85 1013.2
20260508004004 75 257 1.0 6.0 0.00 1.08 1.08 84 1013.0
20260508003004 75 239 2.0 6.0 0.00 1.08 1.08 84 1012.9
20260508002004 75 246 0.0 3.0 0.00 1.08 1.08 83 1012.8
20260508001004 75 244 1.0 6.0 0.00 1.08 1.08 82 1012.7
20260508000004 76 240 2.0 8.0 0.00 1.08 1.08 82 1012.6
20260507235004 76 254 1.0 8.0 0.00 1.08 1.08 81 1012.5
20260507234004 76 253 1.0 7.0 0.00 1.08 1.08 80 1012.4
20260507233004 77 218 2.0 8.0 0.00 1.08 1.08 80 1012.5
20260507232004 77 236 3.0 9.0 0.00 1.08 1.08 79 1012.6
20260507231004 77 230 2.0 16.0 0.00 1.08 1.08 79 1012.6
20260507230004 78 225 4.0 16.0 0.00 1.08 1.08 79 1012.9
20260507225004 78 243 4.0 14.0 0.00 1.08 1.08 78 1012.6
20260507224004 78 229 3.0 12.0 0.00 1.08 1.08 79 1012.6
20260507223003 78 239 4.0 8.0 0.00 1.08 1.08 78 1012.5
20260507222004 78 261 5.0 12.0 0.00 1.08 1.08 79 1012.6
20260507220004 78 237 4.0 14.0 0.00 1.08 1.08 79 1012.5
20260507215004 77 255 5.0 12.0 0.00 1.08 1.08 80 1012.6
20260507214004 76 206 3.0 12.0 0.00 1.08 1.08 80 1012.7
20260507213004 76 240 3.0 14.0 0.00 1.08 1.08 80 1012.7
20260507212004 76 244 6.0 13.0 0.00 1.08 1.08 80 1012.6
20260507211004 76 253 5.0 14.0 0.00 1.08 1.08 79 1012.5
20260507203004 76 266 5.0 13.0 0.00 1.08 1.08 80 1012.6
20260507202004 76 245 5.0 14.0 0.00 1.08 1.08 80 1012.8
20260507201004 76 215 7.0 17.0 0.00 1.08 1.08 80 1012.5
20260507195004 77 231 7.0 17.0 0.00 1.08 1.08 77 1012.5
20260507194004 78 223 3.0 12.0 0.00 1.08 1.08 77 1012.6
20260507193004 78 245 6.0 14.0 0.00 1.08 1.08 77 1012.7
20260507192003 78 237 5.0 13.0 0.00 1.08 1.08 77 1012.9
20260507191005 78 227 5.0 12.0 0.00 1.08 1.08 78 1012.9
20260507190004 78 252 6.0 17.0 0.00 1.08 1.08 79 1012.8
20260507185004 77 241 9.0 17.0 0.00 1.08 1.08 79 1013.0
20260507184004 75 252 6.0 15.0 0.00 1.08 1.08 84 1013.3
20260507183004 74 241 3.0 15.0 0.00 1.08 1.08 84 1013.5
20260507182004 74 273 5.0 15.0 0.00 1.08 1.08 84 1013.7
20260507181004 74 206 5.0 15.0 0.00 1.08 1.08 84 1013.7
20260507180004 74 195 3.0 17.0 0.00 1.08 1.08 84 1013.7
20260507175004 74 242 6.0 20.0 0.00 1.08 1.08 84 1013.9
20260507174004 74 228 5.0 20.0 0.00 1.08 1.08 84 1013.6
20260507173004 74 218 5.0 18.0 0.00 1.08 1.08 84 1013.7
20260507172004 74 202 5.0 22.0 0.00 1.08 1.08 86 1013.7
20260507171004 74 225 3.0 20.0 0.00 1.08 1.08 86 1013.6
20260507170004 74 172 5.0 12.0 0.00 1.08 1.08 87 1013.8
20260507165004 74 264 5.0 12.0 0.00 1.08 1.08 87 1014.0
20260507164004 73 238 4.0 13.0 0.00 1.08 1.08 88 1014.0
20260507162004 73 260 3.0 10.0 0.00 1.08 1.08 89 1013.9
20260507161004 73 227 3.0 14.0 0.00 1.08 1.08 90 1014.1
20260507155004 72 200 4.0 12.0 0.00 1.08 1.08 91 1013.7
20260507154004 71 212 6.0 12.0 0.00 1.08 1.08 91 1014.1
20260507153004 71 243 3.0 12.0 0.00 1.08 1.08 91 1014.2
20260507152005 71 320 2.0 15.0 0.00 1.08 1.08 92 1014.0
20260507151004 71 247 5.0 20.0 0.01 1.08 1.08 92 1013.9
20260507150005 70 200 5.0 21.0 0.04 1.08 1.08 92 1013.3
20260507145004 70 159 4.0 20.0 0.07 1.08 1.08 92 1012.9
20260507144005 70 83 5.0 22.0 0.11 1.08 1.08 92 1013.5
20260507142005 70 188 5.0 15.0 0.15 1.08 1.08 92 1013.1
20260507141004 70 147 5.0 18.0 0.17 1.07 1.07 92 1012.6
20260507140005 70 156 5.0 14.0 0.26 1.04 1.04 92 1013.9
20260507135005 70 186 6.0 14.0 0.29 1.01 1.01 92 1014.4
20260507134005 70 167 3.0 14.0 0.28 0.97 0.97 92 1014.9
20260507133004 70 163 5.0 10.0 0.32 0.95 0.95 92 1015.0
20260507132004 70 159 4.0 10.0 0.47 0.93 0.93 92 1015.5
20260507131005 70 190 3.0 10.0 0.44 0.90 0.90 92 1015.7
20260507130004 70 220 4.0 10.0 0.33 0.78 0.78 92 1016.0
20260507125004 70 246 3.0 12.0 0.27 0.72 0.72 92 1016.0
20260507124004 70 249 2.0 10.0 0.24 0.69 0.69 92 1015.0
20260507123004 70 212 4.0 12.0 0.19 0.63 0.63 92 1015.2
20260507122004 69 260 2.0 15.0 0.15 0.46 0.46 92 1013.8
20260507121005 70 192 1.0 15.0 0.28 0.46 0.46 92 1013.1
20260507120004 69 152 4.0 12.0 0.35 0.45 0.45 92 1012.9
20260507115004 69 154 5.0 12.0 0.37 0.45 0.45 92 1012.9
20260507114004 69 171 5.0 13.0 0.37 0.45 0.45 91 1013.3
20260507113004 69 152 5.0 16.0 0.36 0.44 0.44 91 1013.5
20260507111003 69 170 3.0 9.0 0.11 0.18 0.18 91 1014.5
20260507110004 69 158 3.0 8.0 0.03 0.10 0.10 91 1014.0
20260507105004 69 191 3.0 9.0 0.01 0.08 0.08 91 1013.5
20260507104004 68 156 2.0 7.0 0.01 0.08 0.08 90 1013.2
20260507102006 68 157 3.0 8.0 0.00 0.07 0.07 90 1012.8
20260507101004 68 142 3.0 8.0 0.00 0.07 0.07 90 1012.4
20260507100005 68 129 3.0 10.0 0.01 0.07 0.07 90 1012.6
20260507095004 68 124 4.0 9.0 0.05 0.07 0.07 89 1012.6
20260507094005 69 113 3.0 7.0 0.06 0.07 0.07 89 1013.2
20260507093004 69 97 3.0 6.0 0.07 0.07 0.07 88 1014.2
20260507092005 69 101 1.0 3.0 0.07 0.07 0.07 88 1014.5
20260507091004 69 42 1.0 12.0 0.07 0.07 0.07 87 1015.1
20260507090005 70 336 5.0 12.0 0.06 0.06 0.06 85 1015.7
20260507085005 72 343 2.0 5.0 0.02 0.02 0.02 83 1015.2
20260507084005 72 321 2.0 3.0 0.01 0.01 0.01 82 1015.1
20260507083004 72 57 1.0 3.0 0.00 0.00 0.00 81 1014.7
20260507081005 72 347 4.0 8.0 0.00 0.00 0.00 81 1015.0
20260507080004 71 331 3.0 6.0 0.00 0.00 0.00 80 1014.8
20260507075005 72 272 3.0 6.0 0.00 0.00 0.00 81 1013.7
20260507073004 72 233 3.0 7.0 0.00 0.00 0.00 83 1012.8
20260507071004 72 179 2.0 12.0 0.00 0.00 0.00 83 1012.2
20260507070009 72 220 1.0 9.0 0.00 0.00 0.00 82 1012.6
20260507065005 72 164 2.0 6.0 0.00 0.00 0.00 81 1012.5
20260507064005 73 180 1.0 6.0 0.00 0.00 0.00 80 1012.4
20260507063005 73 163 1.0 3.0 0.00 0.00 0.00 79 1012.8
20260507062004 73 143 1.0 3.0 0.00 0.00 0.00 79 1013.3
20260507061005 73 284 2.0 6.0 0.00 0.00 0.00 78 1013.6
20260507060004 74 175 1.0 6.0 0.00 0.00 0.00 77 1013.6
20260507054004 74 253 2.0 7.0 0.00 0.00 0.00 76 1014.2
20260507053005 74 142 1.0 6.0 0.00 0.00 0.00 75 1013.6
20260507052004 74 204 1.0 5.0 0.00 0.00 0.00 74 1014.1
20260507051005 75 240 0.0 7.0 0.00 0.00 0.00 74 1014.5
20260507050005 75 279 1.0 5.0 0.00 0.00 0.00 73 1014.6
20260507045005 75 212 1.0 9.0 0.00 0.00 0.00 72 1014.6
20260507044004 75 186 3.0 10.0 0.00 0.00 0.00 72 1014.5
20260507043004 76 197 3.0 9.0 0.00 0.00 0.00 71 1014.4
20260507042004 76 201 2.0 8.0 0.00 0.00 0.00 70 1014.2
20260507041004 76 207 2.0 8.0 0.00 0.00 0.00 70 1014.7
20260507040004 76 201 2.0 8.0 0.00 0.00 0.00 69 1014.6